| time (UTC) | temp C | wind direction | speed KPH | gust KPH | rain 1hr cm | rain 24hr cm | rain mn cm | humidity % | barometer mb |
| 20260504194523 | 23 | 205 | 0.0 | 6.4 | 0.00 | 0.00 | 0.00 | 34 | 1010.0 |
| 20260504193020 | 22 | 257 | 0.0 | 6.4 | 0.00 | 0.00 | 0.00 | 34 | 1010.0 |
| 20260504191517 | 23 | 248 | 1.6 | 6.4 | 0.00 | 0.00 | 0.00 | 33 | 1010.3 |
| 20260504190019 | 23 | 134 | 1.6 | 12.9 | 0.00 | 0.00 | 0.00 | 32 | 1010.4 |
| 20260504184526 | 22 | 243 | 1.6 | 4.8 | 0.00 | 0.00 | 0.00 | 34 | 1010.6 |
| 20260504183007 | 22 | 240 | 0.0 | 4.8 | 0.00 | 0.00 | 0.00 | 38 | 1010.8 |
| 20260504181504 | 21 | 127 | 0.0 | 4.8 | 0.00 | 0.00 | 0.00 | 35 | 1011.1 |
| 20260504180003 | 21 | 193 | 1.6 | 11.3 | 0.00 | 0.00 | 0.00 | 34 | 1011.3 |
| 20260504174600 | 21 | 141 | 0.0 | 4.8 | 0.00 | 0.00 | 0.00 | 35 | 1011.4 |
| 20260504173104 | 21 | 267 | 0.0 | 4.8 | 0.00 | 0.00 | 0.00 | 39 | 1011.6 |
| 20260504171558 | 21 | 249 | 0.0 | 6.4 | 0.00 | 0.00 | 0.00 | 37 | 1011.8 |
| 20260504081521 | 7 | 84 | 0.0 | 0.0 | 0.00 | 0.00 | 0.00 | 64 | 1014.1 |
| 20260504050007 | 8 | 93 | 0.0 | 0.0 | 0.00 | 0.00 | 0.00 | 59 | 1013.6 |
| 20260504044504 | 8 | 92 | 0.0 | 0.0 | 0.00 | 0.00 | 0.00 | 59 | 1013.5 |
| 20260504043001 | 8 | 99 | 0.0 | 0.0 | 0.00 | 0.00 | 0.00 | 59 | 1013.5 |
| 20260504041601 | 8 | 99 | 0.0 | 0.0 | 0.00 | 0.00 | 0.00 | 59 | 1013.4 |
| 20260504040055 | 8 | 99 | 0.0 | 1.6 | 0.00 | 0.00 | 0.00 | 57 | 1013.3 |
| 20260504034601 | 8 | 96 | 0.0 | 0.0 | 0.00 | 0.00 | 0.00 | 58 | 1013.1 |
| 20260504033058 | 8 | 96 | 0.0 | 0.0 | 0.00 | 0.00 | 0.00 | 57 | 1013.1 |
| 20260504031605 | 8 | 96 | 0.0 | 0.0 | 0.00 | 0.00 | 0.00 | 57 | 1013.1 |
| 20260504030111 | 8 | 96 | 0.0 | 0.0 | 0.00 | 0.00 | 0.00 | 55 | 1013.0 |
| 20260504024552 | 8 | 96 | 0.0 | 0.0 | 0.00 | 0.00 | 0.00 | 56 | 1013.0 |
| 20260504023050 | 8 | 75 | 0.0 | 0.0 | 0.00 | 0.00 | 0.00 | 56 | 1013.0 |
| 20260504021549 | 9 | 75 | 0.0 | 0.0 | 0.00 | 0.00 | 0.00 | 56 | 1013.0 |
| 20260504020050 | 9 | 75 | 0.0 | 0.0 | 0.00 | 0.00 | 0.00 | 51 | 1013.1 |
| 20260504014548 | 9 | 115 | 0.0 | 0.0 | 0.00 | 0.00 | 0.00 | 53 | 1013.0 |
| 20260504013050 | 9 | 148 | 0.0 | 0.0 | 0.00 | 0.00 | 0.00 | 52 | 1012.8 |
| 20260504011548 | 10 | 148 | 0.0 | 0.0 | 0.00 | 0.00 | 0.00 | 50 | 1012.6 |
| 20260504010047 | 10 | 148 | 0.0 | 0.0 | 0.00 | 0.00 | 0.00 | 51 | 1012.4 |
| 20260504004547 | 10 | 148 | 0.0 | 0.0 | 0.00 | 0.00 | 0.00 | 48 | 1012.3 |
| 20260504003047 | 10 | 148 | 0.0 | 0.0 | 0.00 | 0.00 | 0.00 | 47 | 1012.1 |
| 20260504001549 | 11 | 148 | 0.0 | 0.0 | 0.00 | 0.00 | 0.00 | 47 | 1011.9 |
| 20260504000106 | 11 | 148 | 0.0 | 0.0 | 0.00 | 0.00 | 0.00 | 46 | 1011.7 |
| 20260503234544 | 12 | 148 | 0.0 | 0.0 | 0.00 | 0.00 | 0.00 | 46 | 1011.5 |
| 20260503233044 | 12 | 148 | 0.0 | 0.0 | 0.00 | 0.00 | 0.00 | 43 | 1011.4 |
| 20260503231543 | 12 | 151 | 0.0 | 0.0 | 0.00 | 0.00 | 0.00 | 41 | 1011.3 |
| 20260503230043 | 13 | 165 | 0.0 | 1.6 | 0.00 | 0.00 | 0.00 | 38 | 1011.2 |
| 20260503224541 | 13 | 181 | 0.0 | 3.2 | 0.00 | 0.00 | 0.00 | 38 | 1011.1 |
| 20260503223041 | 13 | 222 | 0.0 | 1.6 | 0.00 | 0.00 | 0.00 | 38 | 1011.1 |
| 20260503221541 | 14 | 231 | 0.0 | 1.6 | 0.00 | 0.00 | 0.00 | 36 | 1010.9 |
| 20260503220040 | 14 | 239 | 0.0 | 1.6 | 0.00 | 0.00 | 0.00 | 35 | 1010.9 |
| 20260503214539 | 15 | 4 | 0.0 | 3.2 | 0.00 | 0.00 | 0.00 | 35 | 1010.9 |
| 20260503213039 | 15 | 26 | 0.0 | 3.2 | 0.00 | 0.00 | 0.00 | 35 | 1010.8 |
| 20260503211538 | 16 | 211 | 0.0 | 1.6 | 0.00 | 0.00 | 0.00 | 37 | 1010.9 |
| 20260503210038 | 15 | 43 | 0.0 | 4.8 | 0.00 | 0.00 | 0.00 | 36 | 1010.8 |
| 20260503204537 | 15 | 5 | 0.0 | 3.2 | 0.00 | 0.00 | 0.00 | 35 | 1010.9 |
| 20260503203042 | 16 | 36 | 0.0 | 3.2 | 0.00 | 0.00 | 0.00 | 36 | 1010.6 |
| 20260503201536 | 17 | 328 | 0.0 | 3.2 | 0.00 | 0.00 | 0.00 | 36 | 1010.9 |
| 20260503200035 | 16 | 281 | 0.0 | 3.2 | 0.00 | 0.00 | 0.00 | 37 | 1011.0 |